TimePST,TemperatureF,Dew PointF,Humidity,Sea Level PressureIn,VisibilityMPH,Wind Direction,Wind SpeedMPH,Gust SpeedMPH,PrecipitationIn,Events,Conditions,WindDirDegrees,DateUTC
12:53 AM,32.0,28.0,85,30.14,10.0,Calm,Calm,-,N/A,,Clear,0,2013-01-28 08:53:00
1:53 AM,32.0,28.0,85,30.16,10.0,Calm,Calm,-,N/A,,Clear,0,2013-01-28 09:53:00
2:53 AM,35.1,30.0,82,30.16,10.0,West,4.6,-,N/A,,Clear,270,2013-01-28 10:53:00
3:53 AM,33.1,28.9,85,30.14,10.0,West,3.5,-,N/A,,Clear,270,2013-01-28 11:53:00
4:53 AM,30.0,27.0,88,30.14,10.0,Calm,Calm,-,N/A,,Clear,0,2013-01-28 12:53:00
5:53 AM,30.0,27.0,88,30.16,10.0,NNE,3.5,-,N/A,,Clear,20,2013-01-28 13:53:00
6:53 AM,30.9,28.0,89,30.18,10.0,Variable,6.9,-,N/A,,Clear,0,2013-01-28 14:53:00
7:53 AM,34.0,30.9,89,30.19,10.0,Calm,Calm,-,N/A,,Clear,0,2013-01-28 15:53:00
8:53 AM,41.0,35.1,79,30.21,10.0,NW,3.5,-,N/A,,Clear,320,2013-01-28 16:53:00
9:53 AM,46.9,35.1,63,30.22,10.0,NW,10.4,-,N/A,,Clear,320,2013-01-28 17:53:00
10:53 AM,48.9,35.1,59,30.23,10.0,NNW,12.7,-,N/A,,Clear,340,2013-01-28 18:53:00
11:53 AM,51.1,35.1,54,30.23,10.0,NNW,11.5,-,N/A,,Clear,340,2013-01-28 19:53:00
12:53 PM,53.1,34.0,48,30.22,10.0,NNW,12.7,20.7,N/A,,Clear,340,2013-01-28 20:53:00
1:53 PM,55.0,33.1,43,30.20,10.0,North,8.1,-,N/A,,Clear,360,2013-01-28 21:53:00
2:53 PM,54.0,33.1,45,30.21,10.0,NNW,9.2,-,N/A,,Scattered Clouds,330,2013-01-28 22:53:00
3:53 PM,53.1,33.1,47,30.22,10.0,North,6.9,-,N/A,,Scattered Clouds,10,2013-01-28 23:53:00
4:53 PM,52.0,34.0,50,30.22,10.0,NNW,4.6,-,N/A,,Clear,340,2013-01-29 00:53:00
5:53 PM,43.0,32.0,65,30.24,10.0,NNE,3.5,-,N/A,,Clear,30,2013-01-29 01:53:00
6:53 PM,43.0,33.1,68,30.25,9.0,Calm,Calm,-,N/A,,Clear,0,2013-01-29 02:53:00
7:53 PM,39.9,32.0,73,30.27,10.0,Calm,Calm,-,N/A,,Clear,0,2013-01-29 03:53:00
8:53 PM,39.9,33.1,77,30.27,10.0,Calm,Calm,-,N/A,,Clear,0,2013-01-29 04:53:00
9:53 PM,37.9,33.1,83,30.27,10.0,Calm,Calm,-,N/A,,Clear,0,2013-01-29 05:53:00
10:53 PM,37.0,32.0,82,30.28,10.0,WNW,4.6,-,N/A,,Clear,290,2013-01-29 06:53:00
11:53 PM,33.1,30.9,92,30.28,10.0,Calm,Calm,-,N/A,,Clear,0,2013-01-29 07:53:00